Regional Weather Roundup
Issued by NWS Goodland, KS

Home | Current Version | Previous Version | Text Only | Print | Product List | Glossary Off
Versions: 1 2 3 4 5 6 7 8 9 10 11 12 13 14 15 16 17 18 19 20 21 22 23 24 25 26 27 28 29 30 31 32 33 34 35 36 37 38 39 40 41 42 43 44 45 46 47 48 49 50

000
ASUS43 KGLD 011008
RWRGLD

GOODLAND FORECAST AREA HOURLY WEATHER ROUNDUP
NATIONAL WEATHER SERVICE GOODLAND KS
400 AM MDT SAT OCT 01 2016

...OFFICIAL OBSERVATIONS...

CITY           SKY/WX    TMP DP  RH WIND       PRES   REMARKS
GOODLAND KS    CLEAR     49  43  80 S3        30.11F
HILL CITY KS   CLOUDY    49  46  90 E3        30.13F
IMPERIAL NEB   CLOUDY    53  45  74 SE9       30.12F
MCCOOK NEB     CLEAR     50  44  80 NE3       30.13S
AKRON CO       CLEAR     52  44  74 S9        30.12F
BURLINGTON CO  CLEAR     49  43  80 S6        30.12F
LIMON CO       CLOUDY    44  39  82 N5        30.16F
$$

...UNOFFICIAL OBSERVATIONS...

CITY           SKY/WX    TMP DP  RH WIND       PRES   REMARKS
COLBY KS       CLEAR     50  46  87 SE7       30.12F
LENORA KS        N/A     50  32  50 MISG        N/A
NORTON KS      CLEAR     48  41  76 CALM      30.12S
SHARON SPRINGS   N/A     49  44  84 CALM        N/A
KIT CARSON CO    N/A     51  45  79 CALM        N/A
$$




USA.gov is the U.S. government's official web portal to all federal, state and local government web resources and services.